RYR40VL EIDW-EHAM

Flight info

Callsign RYR40VL
Flight time 1h 9m
Altitude 37000
Route ENDEQ3J ENDEQ Q36 ALAVA Z195 MALUD UL975 WAL M16 DOLAS L603 LAMSO
Aircraft B738/M-SDE3FGILRWY/SB1

Departure

Time 2026-05-05 18:48
Airport Dublin Airport (EIDW)

Arrival

Time 2026-05-05 19:57
Airport Amsterdam Airport Schiphol (EHAM)
Time Latitude Longitude Altitude Speed Heading
2026-05-05 18:17 53.43015 -6.25074 210 ft 0 kts
2026-05-05 18:39 53.43000 -6.25075 217 ft 4 kts 356°
2026-05-05 18:39 53.42975 -6.25065 212 ft 4 kts 327°
2026-05-05 18:40 53.42958 -6.25035 212 ft 4 kts 292°
2026-05-05 18:40 53.42953 -6.25007 217 ft 0 kts 275°
2026-05-05 18:43 53.42953 -6.25011 216 ft 2 kts 275°
2026-05-05 18:43 53.42957 -6.25085 213 ft 12 kts 275°
2026-05-05 18:43 53.42950 -6.25287 213 ft 18 kts 250°
2026-05-05 18:44 53.43022 -6.25409 214 ft 19 kts 337°
2026-05-05 18:44 53.43151 -6.25501 213 ft 21 kts 337°
2026-05-05 18:44 53.43288 -6.25602 210 ft 22 kts 335°
2026-05-05 18:44 53.43390 -6.25641 214 ft 10 kts 47°
2026-05-05 18:45 53.43403 -6.25508 210 ft 14 kts 92°
2026-05-05 18:45 53.43393 -6.25322 210 ft 18 kts 96°
2026-05-05 18:45 53.43381 -6.25110 214 ft 18 kts 94°
2026-05-05 18:45 53.43371 -6.24904 213 ft 17 kts 95°
2026-05-05 18:46 53.43360 -6.24710 218 ft 15 kts 95°
2026-05-05 18:46 53.43379 -6.24571 214 ft 11 kts 43°
2026-05-05 18:46 53.43451 -6.24549 215 ft 11 kts
2026-05-05 18:46 53.43516 -6.24583 220 ft 10 kts 310°
2026-05-05 18:47 53.43532 -6.24697 215 ft 10 kts 276°
2026-05-05 18:47 53.43540 -6.24832 212 ft 15 kts 282°
2026-05-05 18:47 53.43566 -6.25326 212 ft 79 kts 275°
2026-05-05 18:47 53.43638 -6.26643 210 ft 145 kts 275°
2026-05-05 18:48 53.43731 -6.28537 561 ft 171 kts 274°
2026-05-05 18:48 53.43953 -6.30592 1187 ft 186 kts 291°
2026-05-05 18:48 53.44609 -6.32422 2136 ft 180 kts 314°
2026-05-05 18:48 53.45542 -6.33678 3168 ft 165 kts 336°
2026-05-05 18:49 53.46634 -6.33766 3961 ft 166 kts 19°
2026-05-05 18:49 53.47619 -6.32479 4266 ft 198 kts 52°
2026-05-05 18:49 53.48093 -6.30157 4470 ft 228 kts 83°
2026-05-05 18:49 53.48155 -6.27394 4842 ft 244 kts 86°
2026-05-05 18:50 53.48192 -6.24490 5213 ft 264 kts 86°
2026-05-05 18:50 53.48232 -6.21347 5829 ft 274 kts 87°
2026-05-05 18:50 53.48278 -6.18106 6586 ft 280 kts 87°
2026-05-05 18:50 53.48269 -6.14826 7381 ft 282 kts 90°
2026-05-05 18:51 53.48209 -6.11529 8217 ft 284 kts 90°
2026-05-05 18:51 53.48138 -6.08198 8998 ft 287 kts 90°
2026-05-05 18:51 53.48066 -6.04834 9795 ft 290 kts 90°
2026-05-05 18:51 53.47994 -6.01425 10425 ft 298 kts 90°
2026-05-05 18:52 53.47920 -5.97802 10602 ft 322 kts 90°
2026-05-05 18:52 53.47843 -5.93946 10973 ft 337 kts 91°
2026-05-05 18:52 53.47763 -5.89962 11613 ft 343 kts 91°
2026-05-05 18:52 53.47681 -5.85932 12332 ft 348 kts 91°
2026-05-05 18:53 53.47598 -5.81855 13060 ft 352 kts 91°
2026-05-05 18:53 53.47513 -5.77710 13785 ft 358 kts 91°
2026-05-05 18:53 53.47426 -5.73511 14466 ft 362 kts 91°
2026-05-05 18:53 53.47336 -5.69268 15195 ft 365 kts 91°
2026-05-05 18:54 53.47245 -5.64983 15927 ft 369 kts 91°
2026-05-05 18:54 53.47151 -5.60659 16636 ft 373 kts 91°
2026-05-05 18:54 53.47055 -5.56285 17334 ft 377 kts 91°
2026-05-05 18:54 53.46956 -5.51860 18032 ft 382 kts 91°
2026-05-05 18:55 53.46854 -5.47377 18673 ft 386 kts 91°
2026-05-05 18:55 53.46750 -5.42860 19267 ft 390 kts 92°
2026-05-05 18:55 53.46642 -5.38288 19868 ft 393 kts 92°
2026-05-05 18:55 53.46534 -5.33747 20451 ft 397 kts 92°
2026-05-05 18:56 53.46421 -5.29091 21038 ft 401 kts 92°
2026-05-05 18:56 53.46305 -5.24389 21623 ft 405 kts 92°
2026-05-05 18:56 53.46186 -5.19646 22189 ft 409 kts 92°
2026-05-05 18:56 53.46064 -5.14863 22755 ft 412 kts 92°
2026-05-05 18:57 53.45940 -5.10028 23302 ft 416 kts 92°
2026-05-05 18:57 53.45812 -5.05153 23812 ft 420 kts 92°
2026-05-05 18:57 53.45681 -5.00242 24279 ft 422 kts 92°
2026-05-05 18:57 53.45547 -4.95309 24746 ft 425 kts 92°
2026-05-05 18:58 53.45411 -4.90338 25204 ft 428 kts 92°
2026-05-05 18:58 53.45271 -4.85334 25651 ft 431 kts 92°
2026-05-05 18:58 53.45128 -4.80302 26092 ft 433 kts 92°
2026-05-05 18:58 53.44983 -4.75244 26524 ft 436 kts 93°
2026-05-05 18:59 53.44834 -4.70146 26952 ft 439 kts 93°
2026-05-05 18:59 53.44683 -4.65018 27364 ft 441 kts 93°
2026-05-05 18:59 53.44528 -4.59857 27761 ft 444 kts 93°
2026-05-05 18:59 53.44370 -4.54668 28154 ft 447 kts 93°
2026-05-05 19:00 53.44209 -4.49445 28549 ft 450 kts 93°
2026-05-05 19:00 53.44044 -4.44192 28942 ft 452 kts 93°
2026-05-05 19:00 53.43876 -4.38907 29309 ft 455 kts 93°
2026-05-05 19:00 53.43705 -4.33606 29675 ft 457 kts 94°
2026-05-05 19:01 53.43530 -4.28264 30024 ft 459 kts 94°
2026-05-05 19:01 53.43353 -4.22908 30320 ft 462 kts 94°
2026-05-05 19:01 53.43172 -4.17511 30622 ft 464 kts 94°
2026-05-05 19:01 53.42988 -4.12110 30927 ft 465 kts 94°
2026-05-05 19:02 53.42801 -4.06688 31245 ft 466 kts 94°
2026-05-05 19:02 53.42612 -4.01276 31640 ft 464 kts 94°
2026-05-05 19:02 53.42422 -3.95887 32065 ft 462 kts 94°
2026-05-05 19:02 53.42229 -3.90509 32482 ft 461 kts 94°
2026-05-05 19:03 53.42035 -3.85148 32841 ft 460 kts 94°
2026-05-05 19:03 53.41905 -3.81604 33069 ft 460 kts 94°
2026-05-05 19:03 53.41706 -3.76252 33430 ft 460 kts 94°
2026-05-05 19:03 53.41506 -3.70909 33825 ft 458 kts 94°
2026-05-05 19:04 53.41304 -3.65590 34168 ft 457 kts 95°
2026-05-05 19:04 53.41100 -3.60274 34444 ft 457 kts 95°
2026-05-05 19:04 53.40894 -3.54957 34710 ft 457 kts 95°
2026-05-05 19:04 53.40685 -3.49636 34987 ft 457 kts 95°
2026-05-05 19:05 53.40474 -3.44332 35256 ft 456 kts 95°
2026-05-05 19:05 53.40261 -3.39035 35515 ft 456 kts 95°
2026-05-05 19:05 53.40046 -3.33724 35792 ft 456 kts 95°
2026-05-05 19:05 53.39829 -3.28435 36065 ft 455 kts 95°
2026-05-05 19:06 53.39611 -3.23149 36322 ft 455 kts 95°
2026-05-05 19:06 53.39389 -3.17853 36570 ft 455 kts 95°
2026-05-05 19:06 53.39166 -3.12577 36832 ft 454 kts 95°
2026-05-05 19:06 53.38957 -3.07296 37051 ft 454 kts 94°
2026-05-05 19:07 53.38564 -2.96665 37054 ft 459 kts 94°
2026-05-05 19:07 53.38165 -2.86026 37035 ft 454 kts 94°
2026-05-05 19:08 53.37757 -2.75523 37050 ft 451 kts 94°
2026-05-05 19:08 53.37340 -2.65137 37046 ft 449 kts 94°
2026-05-05 19:09 53.36913 -2.54706 37020 ft 449 kts 95°
2026-05-05 19:09 53.36477 -2.44285 37021 ft 449 kts 95°
2026-05-05 19:10 53.36034 -2.33870 37024 ft 449 kts 95°
2026-05-05 19:10 53.35491 -2.23444 37020 ft 450 kts 99°
2026-05-05 19:11 53.34443 -2.13119 37027 ft 450 kts 101°
2026-05-05 19:11 53.33308 -2.02786 37024 ft 452 kts 101°
2026-05-05 19:12 53.32205 -1.92423 37021 ft 453 kts 101°
2026-05-05 19:12 53.31111 -1.82019 37018 ft 455 kts 101°
2026-05-05 19:13 53.30011 -1.71614 37015 ft 455 kts 101°
2026-05-05 19:13 53.28895 -1.61184 37014 ft 455 kts 101°
2026-05-05 19:14 53.27771 -1.50769 37007 ft 455 kts 101°
2026-05-05 19:14 53.26642 -1.40370 37011 ft 455 kts 101°
2026-05-05 19:15 53.25506 -1.29988 37013 ft 454 kts 101°
2026-05-05 19:15 53.24371 -1.19697 37005 ft 453 kts 102°
2026-05-05 19:16 53.23221 -1.09361 37013 ft 452 kts 102°
2026-05-05 19:16 53.22065 -0.99054 37012 ft 452 kts 102°
2026-05-05 19:17 53.20903 -0.88765 37014 ft 451 kts 102°
2026-05-05 19:17 53.19733 -0.78505 37018 ft 450 kts 102°
2026-05-05 19:18 53.18555 -0.68245 37022 ft 450 kts 102°
2026-05-05 19:18 53.17371 -0.58005 37022 ft 450 kts 102°
2026-05-05 19:19 53.16180 -0.47779 37019 ft 450 kts 102°
2026-05-05 19:19 53.14978 -0.37539 37022 ft 450 kts 102°
2026-05-05 19:20 53.13769 -0.27321 37028 ft 450 kts 103°
2026-05-05 19:20 53.12550 -0.17095 37021 ft 450 kts 103°
2026-05-05 19:21 53.11320 -0.06867 37025 ft 451 kts 103°
2026-05-05 19:21 53.10083 0.03353 37023 ft 451 kts 103°
2026-05-05 19:22 53.08835 0.13579 37011 ft 451 kts 103°
2026-05-05 19:22 53.07578 0.23805 37012 ft 451 kts 103°
2026-05-05 19:23 53.06317 0.33980 36997 ft 452 kts 103°
2026-05-05 19:23 53.05042 0.44199 36987 ft 452 kts 103°
2026-05-05 19:24 53.03757 0.54419 36984 ft 452 kts 104°
2026-05-05 19:24 53.02464 0.64628 36990 ft 452 kts 104°
2026-05-05 19:25 53.01162 0.74836 36982 ft 452 kts 104°
2026-05-05 19:25 52.99853 0.85022 36979 ft 451 kts 104°
2026-05-05 19:26 52.98537 0.95205 36985 ft 451 kts 104°
2026-05-05 19:26 52.97877 1.00283 36838 ft 452 kts 104°
2026-05-05 19:26 52.97248 1.05380 36529 ft 448 kts 103°
2026-05-05 19:27 52.96663 1.10425 36168 ft 443 kts 103°
2026-05-05 19:27 52.96096 1.15424 35766 ft 439 kts 103°
2026-05-05 19:27 52.95535 1.20368 35377 ft 435 kts 103°
2026-05-05 19:27 52.94972 1.25285 34984 ft 432 kts 103°
2026-05-05 19:28 52.94408 1.30159 34593 ft 429 kts 104°
2026-05-05 19:28 52.93844 1.34988 34206 ft 426 kts 104°
2026-05-05 19:28 52.93278 1.39794 33788 ft 423 kts 104°
2026-05-05 19:28 52.92715 1.44548 33349 ft 420 kts 104°
2026-05-05 19:29 52.92153 1.49274 32948 ft 416 kts 104°
2026-05-05 19:29 52.91595 1.53954 32567 ft 412 kts 104°
2026-05-05 19:29 52.91041 1.58580 32187 ft 408 kts 104°
2026-05-05 19:29 52.90489 1.63178 31806 ft 405 kts 104°
2026-05-05 19:30 52.89941 1.67720 31438 ft 401 kts 104°
2026-05-05 19:30 52.89394 1.72243 31069 ft 398 kts 104°
2026-05-05 19:30 52.88858 1.76662 30712 ft 395 kts 105°
2026-05-05 19:30 52.88316 1.81111 30336 ft 393 kts 105°
2026-05-05 19:31 52.87777 1.85522 29991 ft 390 kts 105°
2026-05-05 19:31 52.87240 1.89904 29576 ft 387 kts 105°
2026-05-05 19:31 52.86706 1.94245 29206 ft 383 kts 105°
2026-05-05 19:31 52.86175 1.98550 28815 ft 380 kts 105°
2026-05-05 19:32 52.85650 2.02797 28452 ft 376 kts 105°
2026-05-05 19:32 52.85125 2.07024 28073 ft 373 kts 105°
2026-05-05 19:32 52.84604 2.11206 27713 ft 370 kts 104°
2026-05-05 19:32 52.84085 2.15359 27346 ft 367 kts 104°
2026-05-05 19:33 52.83569 2.19479 26979 ft 364 kts 104°
2026-05-05 19:33 52.83056 2.23566 26624 ft 362 kts 104°
2026-05-05 19:33 52.82544 2.27626 26283 ft 360 kts 104°
2026-05-05 19:33 52.82035 2.31659 25924 ft 357 kts 104°
2026-05-05 19:34 52.81528 2.35666 25588 ft 355 kts 104°
2026-05-05 19:34 52.81024 2.39645 25250 ft 353 kts 104°
2026-05-05 19:34 52.80522 2.43599 24919 ft 350 kts 104°
2026-05-05 19:35 52.79522 2.51456 24246 ft 352 kts 103°
2026-05-05 19:35 52.79012 2.55438 23905 ft 357 kts 103°
2026-05-05 19:35 52.78494 2.59474 23564 ft 361 kts 103°
2026-05-05 19:35 52.77973 2.63530 23154 ft 361 kts 103°
2026-05-05 19:36 52.77451 2.67580 22740 ft 360 kts 103°
2026-05-05 19:36 52.76930 2.71614 22330 ft 359 kts 103°
2026-05-05 19:36 52.76408 2.75646 21932 ft 358 kts 103°
2026-05-05 19:36 52.75751 2.79573 21576 ft 352 kts 114°
2026-05-05 19:37 52.74880 2.82536 21433 ft 344 kts 119°
2026-05-05 19:37 52.73780 2.86003 21215 ft 339 kts 119°
2026-05-05 19:37 52.73002 2.88435 21063 ft 336 kts 119°
2026-05-05 19:37 52.71913 2.91839 20718 ft 336 kts 119°
2026-05-05 19:38 52.70838 2.95208 20380 ft 337 kts 119°
2026-05-05 19:38 52.69746 2.98640 20032 ft 339 kts 119°
2026-05-05 19:38 52.68652 3.02088 19686 ft 340 kts 119°
2026-05-05 19:38 52.67557 3.05541 19350 ft 340 kts 119°
2026-05-05 19:39 52.66454 3.08985 18998 ft 340 kts 119°
2026-05-05 19:39 52.65345 3.12445 18614 ft 342 kts 119°
2026-05-05 19:39 52.64235 3.15913 18235 ft 342 kts 118°
2026-05-05 19:39 52.63131 3.19371 17805 ft 341 kts 118°
2026-05-05 19:40 52.62032 3.22820 17372 ft 340 kts 118°
2026-05-05 19:40 52.60934 3.26263 16950 ft 339 kts 118°
2026-05-05 19:40 52.59839 3.29699 16531 ft 338 kts 118°
2026-05-05 19:40 52.58748 3.33118 16119 ft 338 kts 118°
2026-05-05 19:41 52.57655 3.36532 15720 ft 337 kts 118°
2026-05-05 19:41 52.56565 3.39936 15318 ft 336 kts 118°
2026-05-05 19:41 52.55475 3.43330 14934 ft 335 kts 118°
2026-05-05 19:41 52.54386 3.46718 14537 ft 334 kts 118°
2026-05-05 19:42 52.53301 3.50091 14155 ft 334 kts 118°
2026-05-05 19:42 52.52219 3.53454 13767 ft 333 kts 118°
2026-05-05 19:42 52.51139 3.56807 13338 ft 332 kts 118°
2026-05-05 19:42 52.50075 3.60109 12932 ft 331 kts 118°
2026-05-05 19:43 52.49001 3.63435 12510 ft 329 kts 118°
2026-05-05 19:43 52.47941 3.66718 12150 ft 320 kts 118°
2026-05-05 19:43 52.46924 3.69862 12000 ft 305 kts 118°
2026-05-05 19:43 52.45938 3.72907 11602 ft 301 kts 118°
2026-05-05 19:44 52.44956 3.75935 11108 ft 301 kts 118°
2026-05-05 19:44 52.43982 3.78936 10707 ft 297 kts 118°
2026-05-05 19:44 52.43016 3.81909 10282 ft 294 kts 117°
2026-05-05 19:44 52.42055 3.84862 9839 ft 293 kts 117°
2026-05-05 19:45 52.41100 3.87791 9349 ft 291 kts 117°
2026-05-05 19:45 52.40148 3.90708 8924 ft 288 kts 117°
2026-05-05 19:45 52.39208 3.93585 8469 ft 286 kts 116°
2026-05-05 19:45 52.38272 3.96445 8029 ft 284 kts 116°
2026-05-05 19:46 52.37342 3.99287 7606 ft 282 kts 116°
2026-05-05 19:46 52.36422 4.02097 7194 ft 279 kts 116°
2026-05-05 19:46 52.35507 4.04886 6778 ft 277 kts 115°
2026-05-05 19:46 52.34599 4.07652 6359 ft 275 kts 115°
2026-05-05 19:47 52.33696 4.10399 5915 ft 273 kts 114°
2026-05-05 19:47 52.32799 4.13124 5517 ft 270 kts 114°
2026-05-05 19:47 52.31916 4.15802 5211 ft 263 kts 114°
2026-05-05 19:47 52.31073 4.18348 5123 ft 248 kts 114°
2026-05-05 19:48 52.30270 4.20772 4998 ft 237 kts 114°
2026-05-05 19:48 52.29497 4.23114 4716 ft 232 kts 114°
2026-05-05 19:48 52.29239 4.23896 4597 ft 232 kts 114°
2026-05-05 19:48 52.28638 4.25717 4316 ft 231 kts 114°
2026-05-05 19:49 52.27901 4.27944 4023 ft 228 kts 113°
2026-05-05 19:49 52.27402 4.29454 3766 ft 230 kts 113°
2026-05-05 19:49 52.26394 4.32496 3572 ft 223 kts 113°
2026-05-05 19:49 52.25675 4.34657 3509 ft 210 kts 113°
2026-05-05 19:50 52.25002 4.36683 3417 ft 196 kts 113°
2026-05-05 19:50 52.24371 4.38576 3281 ft 186 kts 112°
2026-05-05 19:50 52.23791 4.40434 3052 ft 182 kts 108°
2026-05-05 19:50 52.23293 4.42296 3002 ft 180 kts 108°
2026-05-05 19:51 52.22791 4.44181 2749 ft 180 kts 108°
2026-05-05 19:51 52.22294 4.46033 2449 ft 180 kts 108°
2026-05-05 19:51 52.21788 4.47899 2225 ft 176 kts 107°
2026-05-05 19:51 52.21311 4.49721 2031 ft 178 kts 101°
2026-05-05 19:52 52.21123 4.51724 2013 ft 176 kts 86°
2026-05-05 19:52 52.21275 4.52985 1984 ft 168 kts 59°
2026-05-05 19:52 52.21960 4.55157 1993 ft 154 kts 64°
2026-05-05 19:52 52.22424 4.56664 2002 ft 147 kts 57°
2026-05-05 19:53 52.22944 4.58080 2000 ft 145 kts 56°
2026-05-05 19:53 52.23475 4.59486 2000 ft 146 kts 56°
2026-05-05 19:53 52.24015 4.60905 1863 ft 148 kts 55°
2026-05-05 19:53 52.24558 4.62329 1675 ft 146 kts 56°
2026-05-05 19:54 52.24906 4.63243 1540 ft 140 kts 55°
2026-05-05 19:54 52.25414 4.64573 1353 ft 135 kts 55°
2026-05-05 19:54 52.25901 4.65849 1156 ft 131 kts 55°
2026-05-05 19:54 52.26387 4.67120 991 ft 134 kts 55°
2026-05-05 19:55 52.26829 4.68276 824 ft 136 kts 54°
2026-05-05 19:55 52.27012 4.68756 742 ft 137 kts 54°
2026-05-05 19:55 52.27030 4.68803 736 ft 137 kts 54°
2026-05-05 19:55 52.27262 4.69413 638 ft 136 kts 54°
2026-05-05 19:56 52.27764 4.70732 454 ft 138 kts 54°
2026-05-05 19:56 52.28258 4.72071 273 ft 136 kts 53°
2026-05-05 19:56 52.28766 4.73370 96 ft 135 kts 55°
2026-05-05 19:56 52.29262 4.74643 0 ft 126 kts 58°
2026-05-05 19:57 52.29637 4.75613 -2 ft 52 kts 54°
2026-05-05 19:57 52.29895 4.75901 -2 ft 34 kts 27°
2026-05-05 19:57 52.30040 4.76096 -2 ft 23 kts 64°
2026-05-05 19:57 52.30118 4.76319 -2 ft 22 kts 58°
2026-05-05 19:58 52.30199 4.76531 -2 ft 22 kts 58°
2026-05-05 19:58 52.30276 4.76731 -2 ft 21 kts 58°
2026-05-05 19:58 52.30352 4.76927 -2 ft 20 kts 57°
2026-05-05 19:58 52.30419 4.77102 -2 ft 20 kts 59°
2026-05-05 19:59 52.30487 4.77284 -2 ft 19 kts 57°
2026-05-05 19:59 52.30558 4.77464 -2 ft 19 kts 58°
2026-05-05 19:59 52.30653 4.77587 -2 ft 18 kts
2026-05-05 19:59 52.30775 4.77602 -2 ft 17 kts
2026-05-05 20:00 52.30893 4.77609 -2 ft 17 kts
2026-05-05 20:00 52.31006 4.77621 -2 ft 16 kts
2026-05-05 20:00 52.31115 4.77633 -2 ft 16 kts
2026-05-05 20:00 52.31227 4.77642 -2 ft 17 kts
2026-05-05 20:01 52.31346 4.77651 -2 ft 18 kts
2026-05-05 20:01 52.31466 4.77621 -2 ft 18 kts 332°
2026-05-05 20:01 52.31555 4.77480 -2 ft 18 kts 301°
2026-05-05 20:01 52.31575 4.77275 -2 ft 19 kts 266°
2026-05-05 20:02 52.31568 4.77050 -2 ft 20 kts 267°
2026-05-05 20:02 52.31559 4.76810 -2 ft 22 kts 266°
2026-05-05 20:02 52.31550 4.76556 -2 ft 23 kts 266°
2026-05-05 20:02 52.31541 4.76299 -2 ft 22 kts 267°
2026-05-05 20:03 52.31533 4.76048 -2 ft 22 kts 267°
2026-05-05 20:03 52.31525 4.75805 -2 ft 21 kts 267°
2026-05-05 20:03 52.31517 4.75570 -2 ft 19 kts 267°
2026-05-05 20:03 52.31460 4.75437 -2 ft 16 kts 185°
2026-05-05 20:04 52.31343 4.75449 -2 ft 18 kts 176°
2026-05-05 20:04 52.31217 4.75461 -2 ft 17 kts 177°
2026-05-05 20:04 52.31125 4.75436 -2 ft 11 kts 224°
2026-05-05 20:04 52.31061 4.75427 -2 ft 7 kts 150°
2026-05-05 20:05 52.31033 4.75456 -2 ft 3 kts 148°
2026-05-05 20:05 52.31028 4.75461 -2 ft 0 kts 148°